Regional Weather Roundup
Issued by NWS

Home | Current Version | Previous Version | Text Only | Print | Product List | Glossary On
Versions: 1 2 3 4 5 6 7 8 9 10 11 12 13 14 15 16 17 18 19 20 21 22 23 24 25 26 27 28 29 30 31 32 33 34 35 36 37 38 39 40 41 42 43 44 45 46 47 48 49 50
830
ASUS43 KDMX 280401
RWRIA

WEATHER ROUNDUP FOR IOWA
NATIONAL WEATHER SERVICE DES MOINES IA
1100 PM CDT THU APR 27 2017

NOTE: "FAIR" INDICATES FEW OR NO CLOUDS BELOW 12,000 FEET WITH NO
SIGNIFICANT WEATHER AND/OR OBSTRUCTIONS TO VISIBILITY.

* - THESE STATIONS ARE NOT NWS STATIONS...THUS NOT UNDER NWS
QUALITY CONTROL.  THEY ALSO DO NOT REPORT WEATHER SUCH
AS PRECIPITATION OR FOG.

IAZ001>003-012>014-020>022-031>034-043>046-280500-
   NORTHWEST IOWA

CITY           SKY/WX    TMP DP  RH WIND       PRES   REMARKS
CARROLL *      CLOUDY    39  34  81 NE6       29.82R WCI  35
CHEROKEE *     CLEAR     36  32  87 NE5       29.82R WCI  32
DENISON *      CLOUDY    41  34  75 E7        29.81S
LE MARS *      CLEAR     37  34  87 NE5       29.81R WCI  34
ORANGE CITY *  CLEAR     37  36  93 E5        29.81R WCI  34
SHELDON *      PTCLDY    34  32  93 NE12      29.82R WCI  25
SIOUX CITY     CLEAR     41  32  70 CALM      29.79R
SPENCER        CLEAR     33  29  85 NE10      29.84R WCI  25
STORM LAKE *   CLOUDY    36  30  80 E7        29.81R WCI  30
$$

IAZ055>058-069>071-079>083-090>094-280500-
   SOUTHWEST IOWA

CITY           SKY/WX    TMP DP  RH WIND       PRES   REMARKS
ATLANTIC *     CLOUDY    45  36  70 CALM      29.79S
AUDUBON *      PTCLDY    41  34  75 CALM      29.82R
CLARINDA *       N/A     54  36  50 CALM      29.80S
COUNCIL BLFS * CLOUDY    50  36  57 E7        29.77S
CRESTON *      CLOUDY    48  36  61 NE6       29.81R
HARLAN  *      CLOUDY    45  36  70 NE7       29.82R
LAMONI         CLOUDY    52  39  61 NE5       29.79S
RED OAK *      CLOUDY    50  39  66 NE3       29.78S
SHENANDOAH *   CLOUDY    54  37  54 E8        29.78S
$$

IAZ047>049-059>061-072>074-084-280500-
   CENTRAL IOWA

CITY           SKY/WX    TMP DP  RH WIND       PRES   REMARKS
AMES           CLOUDY    38  32  79 NE5       29.84R WCI  34
ANKENY *       CLOUDY    41  32  70 NE7       29.85R
BOONE *        CLOUDY    36  32  87 NE7       29.82R WCI  30
CHARITON *     CLOUDY    46  39  76 NE12      29.82R
DES MOINES     CLOUDY    47  33  58 NE7       29.83R
GRINNELL*      PTCLDY    38  32  78 NE3       29.85R
KNOXVILLE *    PTCLDY    45  34  65 NE6       29.82R
MARSHALLTOWN   CLOUDY    36  30  79 N3        29.84R
NEWTON *       PTCLDY    39  32  75 NE5       29.83R
PELLA *        PTCLDY    42  34  73 CALM      29.85R
PERRY *          N/A     41  32  69 NE7       29.83R
$$

IAZ004>006-015-016-023>025-035-036-280500-
   NORTH CENTRAL IOWA

CITY           SKY/WX    TMP DP  RH WIND       PRES   REMARKS
ALGONA *       CLEAR     34  30  86 N8        29.84R WCI  27
CLARION *      CLEAR     36  34  93 N10       29.83S WCI  28
ESTHERVILLE    PTCLDY    31  29  92 N7        29.85R WCI  24
FORT DODGE *   CLEAR     34  27  75 CALM      29.83R
MASON CITY     MOCLDY    34  28  79 NW8       29.85R WCI  27
FOREST CITY *    N/A     32  25  74 NW6       29.85R WCI  26
WEBSTER CITY * CLEAR     34  28  80 CALM      29.81S
IOWA FALLS *     N/A     36  30  79 NW8       29.84R WCI  29
$$

IAZ007>011-017>019-026>030-037>042-050>054-066-280500-
   NORTHEAST IOWA

CITY           SKY/WX    TMP DP  RH WIND       PRES   REMARKS
CEDAR RAPIDS   CLOUDY    35  33  92 S3        29.84R
CHARLES CITY * CLOUDY    37  30  75 W13       29.84R WCI  29
CLINTON *      CLEAR     38  34  85 NW3       29.86R
DECORAH *      CLOUDY    36  28  75 W12       29.81R WCI  27
DUBUQUE        CLEAR     34  30  85 SW3       29.83R
MONTICELLO *   CLEAR     36  32  87 CALM      29.84R
WATERLOO       CLEAR     36  29  75 NW5       29.83R WCI  32
$$

IAZ064-065-067-068-078-280500-
   EAST CENTRAL IOWA

CITY           SKY/WX    TMP DP  RH WIND       PRES   REMARKS
DAVENPORT      PTCLDY    37  34  89 CALM      29.86R
IOWA CITY      PTCLDY    42  33  70 CALM      29.87R
MUSCATINE *    PTCLDY    41  37  87 CALM      29.86R
QUAD CITIES    PTCLDY    39  36  89 CALM      29.85R
$$

IAZ062-063-075>077-085>089-095>099-280500-
   SOUTHEAST IOWA

CITY           SKY/WX    TMP DP  RH WIND       PRES   REMARKS
BURLINGTON     CLOUDY    48  45  89 S5        29.84R
FAIRFIELD *    CLOUDY    43  39  87 NE7       29.83R
FORT MADISON * CLOUDY    50  46  87 S5        29.85R
KEOKUK *       CLOUDY    52  45  76 S8        29.84R
OSKALOOSA *      N/A     42  35  78 NE8       29.85R
CENTERVILLE *    N/A     48  41  76 CALM      29.82S
OTTUMWA        PTCLDY    45  37  73 NE9       29.83R
WASHINGTON *   CLOUDY    41  37  87 NE7       29.86R
$$

ABBREVIATIONS USED IN REMARKS
   TC - TEMPERATURES IN CELSIUS
  WCI - WIND CHILL INDEX
   HX - HEAT INDEX
  VSB - VISIBILITY
$$





USA.gov is the U.S. government's official web portal to all federal, state and local government web resources and services.